This is the latest recevied weather packets stored in our database for station/object K0PFX-8. If no packets are shown the sender has not sent any weather packets the latest 10 day(s).
| Time | Temp. | Humidity | Pressure | Rain* | Wind** | Luminosity | Snow |
|---|---|---|---|---|---|---|---|
| 1777695679 | 12.22° C | 71% | 1018.1 hPa | 0 mm | 0 m/s | - | - |
| 1777694778 | 12.22° C | 67% | 1018.1 hPa | 0 mm | 0 m/s | - | - |
| 1777693879 | 12.22° C | 63% | 1018.1 hPa | 0 mm | 0 m/s | - | - |
| 1777692978 | 12.78° C | 61% | 1018.1 hPa | 0 mm | 0 m/s | - | - |
| 1777692080 | 12.78° C | 62% | 1018.1 hPa | 0 mm | 0 m/s | - | - |
| 1777691178 | 13.33° C | 55% | 1018.2 hPa | 0 mm | 0 m/s | - | - |
| 1777690280 | 13.89° C | 52% | 1018.2 hPa | 0 mm | 0 m/s | - | - |
| 1777689379 | 13.89° C | 49% | 1018.1 hPa | 0 mm | 0 m/s | - | - |
| 1777687580 | 13.33° C | 60% | 1017.9 hPa | 0 mm | 0 m/s | - | - |
| 1777686682 | 13.89° C | 60% | 1017.6 hPa | 0 mm | 0 m/s | - | - |
| 1777685780 | 13.89° C | 54% | 1017.3 hPa | 0 mm | 0 m/s | - | - |
| 1777684882 | 14.44° C | 46% | 1017.1 hPa | 0 mm | 0 m/s | - | - |
| 1777683981 | 15° C | 47% | 1016.9 hPa | 0 mm | 0 m/s | - | - |
| 1777683082 | 15° C | 40% | 1016.7 hPa | 0 mm | 0 m/s | - | - |
| 1777682181 | 15.56° C | 38% | 1016.7 hPa | 0 mm | 0 m/s | - | - |
| 1777681283 | 15.56° C | 33% | 1016.7 hPa | 0 mm | 0 m/s | - | - |
| 1777680382 | 15.56° C | 33% | 1016.7 hPa | 0 mm | 2.68 m/s, 252° | - | - |
| 1777679484 | 16.11° C | 32% | 1016.5 hPa | 0 mm | 3.13 m/s, 245° | - | - |
| 1777678583 | 16.11° C | 31% | 1016.3 hPa | 0 mm | 4.47 m/s, 248° | - | - |
| 1777677685 | 16.11° C | 30% | 1016.2 hPa | 0 mm | 4.02 m/s, 269° | - | - |
| 1777676784 | 16.67° C | 31% | 1016.3 hPa | 0 mm | 3.58 m/s, 243° | - | - |
| 1777675885 | 16.11° C | 28% | 1016.6 hPa | 0 mm | 2.68 m/s, 231° | - | - |
| 1777674985 | 16.67° C | 28% | 1016.8 hPa | 0 mm | 3.58 m/s, 245° | - | - |
| 1777674087 | 16.11° C | 28% | 1017 hPa | 0 mm | 1.79 m/s, 276° | - | - |
| 1777673185 | 17.22° C | 28% | 1017.2 hPa | 0 mm | 3.58 m/s, 235° | - | - |
* Rain latest hour (hover to see other rain measurements)
** Current wind speed in m/s (hover to see current wind gust speed)